Regional Weather Roundup
Issued by NWS Jackson, KY

Home | Current Version | Previous Version | Text Only | Print | Product List | Glossary On
Versions: 1 2 3 4 5 6 7 8 9 10 11 12 13 14 15 16 17 18 19 20 21 22 23 24 25 26 27 28 29 30 31 32 33 34 35 36 37 38 39 40 41 42 43 44 45 46 47 48 49 50
000
ASUS43 KJKL 060410
RWRJKL

EAST KENTUCKY HOURLY WEATHER ROUNDUP
NATIONAL WEATHER SERVICE JACKSON KY
1200 AM EDT WED MAY 06 2015

NOTE: "FAIR" INDICATES FEW OR NO CLOUDS BELOW 12,000 FEET WITH
NO SIGNIFICANT WEATHER AND/OR OBSTRUCTIONS TO VISIBILITY.

* THESE REPORTS ARE NOT UNDER NWS QUALITY CONTROL AND MAY NOT
  REPORT WEATHER SUCH AS PRECIPITATION AND FOG.

KYZ079-080-083-085-087-088-110-112-115-119-120-060500
...EASTERN KENTUCKY...

CITY           SKY/WX    TMP DP  RH WIND       PRES   REMARKS
JACKSON        CLEAR     71  51  49 CALM      30.25S
LONDON         PTCLDY    64  53  67 CALM      30.24S
SOMERSET*      CLEAR     61  54  77 CALM      30.25S
MONTICELLO*    CLEAR     59  56  89 CALM      30.26S
MIDDLESBORO*   CLOUDY    61  55  82 CALM      30.26S
HARLAN APT*    PTCLDY    59  54  82 CALM      30.27S
HAZARD APT*    CLEAR     64  55  72 CALM      30.25S
BLACK MTN*       N/A     61  50  67 CALM        N/A
PIKEVILLE APT* CLEAR     70  54  56 CALM      30.25S
BIG SANDY*     CLEAR     68  54  60 CALM      30.24S
MOREHEAD APT*  CLEAR     64  54  68 CALM      30.25S
$$

KYZ035-036-041-042-044-050-067-078-099-060500
...CENTRAL KENTUCKY...

CITY           SKY/WX    TMP DP  RH WIND       PRES   REMARKS
MT STERLING*   CLEAR     61  59  94 CALM      30.24S
FLEMING/MASON* CLEAR     68  54  60 S7        30.23S
DANVILLE*      CLEAR     61  55  82 CALM      30.24S
RICHMOND*      CLEAR     64  55  72 SE6       30.23S
LEXINGTON      CLEAR     64  55  72 S3        30.23S
FRANKFORT      CLEAR     62  53  72 CALM      30.21R
$$

KYZ091>093-OHZ055-061-077-WVZ005-015-034-035-042-060500
...SOUTHERN OHIO/WEST VIRGINIA...

CITY           SKY/WX    TMP DP  RH WIND       PRES   REMARKS
COVINGTON      CLEAR     65  54  67 CALM      30.21S
COLUMBUS       CLEAR     65  57  75 CALM      30.19S
DAYTON         PTCLDY    71  54  54 SW5       30.21S
WILMINGTON     CLEAR     64  52  64 CALM      30.21S
HUNTINGTON     CLEAR     64  56  75 CALM      30.21S
CHARLESTON     CLEAR     63  56  78 CALM      30.23R
PINEVILLE*     MOCLDY    59  57  94 MISG      30.33R
BECKLEY        CLOUDY    63  50  62 CALM      30.30S
BLUEFIELD      MOCLDY    68  48  48 CALM      30.32S
$$

VAZ002-007-008-TNZ017-027-036-066-071-060500
...SOUTHWEST VIRGINIA/EAST TENNESSEE...

CITY           SKY/WX    TMP DP  RH WIND       PRES   REMARKS
WISE*          CLEAR     64  46  52 S6        30.32R
JONESVILLE*    CLEAR     59  54  82 CALM      30.28S
ABINGDON*      PTCLDY    63  55  73 CALM      30.29S
BRISTOL        MOCLDY    69  54  58 CALM      30.26S
KNOXVILLE      CLOUDY    69  57  65 SW5       30.23S
OAK RIDGE      CLOUDY    72  58  61 CALM      30.25S
CROSSVILLE     MOCLDY    65  53  65 CALM      30.28S
NASHVILLE      PTCLDY    67  57  70 S5        30.21S
$$

...KEY TO REMARKS...
VSB - VISIBILITY IN MILES
WCI - WIND CHILL INDEX
HX  - HEAT INDEX

$$


USA.gov is the U.S. government's official web portal to all federal, state and local government web resources and services.